QPF
0.08 0.08 0.08 0.06 0.05 0.07 0.10 0.11 0.10 0.09 0.12 0.12 0.10 0.12 0.14 0.14 0.14 0.10 0.08 0.08 0.06 0.05 0.04 0.04 0.04 0.04 0.05 0.05 0.06 0.07 0.10 0.12 0.13 0.12 0.12 0.11 0.12 0.13
0.11 0.11 0.09 0.07 0.09 0.11 0.12 0.14 0.14 0.12 0.12 0.13 0.12 0.10 0.09 0.08 0.13 0.11 0.07 0.06 0.06 0.06 0.05 0.04 0.04 0.03 0.03 0.03 0.03 0.04 0.06 0.09 0.12 0.14 0.13 0.10 0.08 0.07
0.09 0.10 0.10 0.10 0.12 0.11 0.11 0.12 0.11 0.12 0.12 0.13 0.12 0.10 0.08 0.07 0.06 0.04 0.04 0.03 0.03 0.04 0.05 0.05 0.04 0.04 0.04 0.02 0.03 0.04 0.06 0.07 0.06 0.06 0.07 0.08 0.08 0.08
0.06 0.07 0.08 0.08 0.08 0.09 0.10 0.12 0.12 0.12 0.12 0.12 0.10 0.09 0.07 0.07 0.04 0.03 0.03 0.03 0.04 0.05 0.05 0.05 0.06 0.06 0.05 0.04 0.05 0.06 0.05 0.04 0.03 0.03 0.04 0.04 0.05 0.06
0.06 0.06 0.06 0.07 0.07 0.07 0.07 0.07 0.08 0.10 0.10 0.08 0.06 0.05 0.04 0.05 0.04 0.05 0.04 0.04 0.05 0.05 0.05 0.05 0.05 0.06 0.05 0.05 0.05 0.04 0.04 0.04 0.06 0.08 0.08 0.06 0.05 0.05
0.09 0.08 0.09 0.08 0.08 0.07 0.07 0.08 0.08 0.07 0.06 0.06 0.06 0.05 0.04 0.04 0.05 0.05 0.04 0.05 0.04 0.03 0.03 0.02 0.03 0.03 0.03 0.04 0.04 0.04 0.05 0.07 0.07 0.07 0.05 0.05 0.05 0.05
0.04 0.04 0.05 0.05 0.06 0.05 0.05 0.05 0.04 0.04 0.04 0.04 0.05 0.05 0.05 0.07 0.09 0.08 0.05 0.03 0.02 0.01 0.01 0.01 0.01 0.01 0.02 0.03 0.03 0.03 0.04 0.03 0.02 0.03 0.03 0.04 0.04 0.04
0.02 0.02 0.02 0.02 0.04 0.04 0.04 0.03 0.03 0.03 0.02 0.03 0.03 0.04 0.05 0.08 0.09 0.07 0.04 0.02 0.02 0.02 0.01 0.01 0.01 0.01 0.01 0.01 0.01 0.01 0.01 0.01 0.01 0.02 0.03 0.03 0.04 0.04
0.01 0.01 0.02 0.02 0.02 0.02 0.02 0.02 0.02 0.03 0.02 0.02 0.02 0.03 0.06 0.06 0.05 0.04 0.03 0.02 0.01 0.01 0.01 0.01 0.00 0.00 0.00 0.00 0.00 0.00 0.00 0.00 0.01 0.01 0.01 0.02 0.02 0.02
0.02 0.02 0.02 0.02 0.02 0.01 0.01 0.02 0.02 0.03 0.03 0.02 0.01 0.02 0.02 0.02 0.02 0.02 0.01 0.01 0.01 0.01 0.01 0.00 0.00 0.00 0.00 0.00 0.00 0.00 0.00 0.00 0.00 0.00 0.00 0.00 0.01 0.00
0.03 0.03 0.04 0.03 0.02 0.02 0.02 0.01 0.02 0.02 0.02 0.01 0.01 0.01 0.01 0.01 0.01 0.01 0.01 0.01 0.01 0.01 0.00 0.00 0.00 0.00 0.00 0.00 0.00 0.00 0.00 0.00 0.00 0.00 0.00 0.00 0.00 0.00
0.03 0.03 0.04 0.03 0.03 0.03 0.02 0.02 0.02 0.02 0.01 0.01 0.01 0.01 0.01 0.01 0.02 0.02 0.01 0.02 0.01 0.01 0.00 0.00 0.00 0.00 0.00 0.00 0.00 0.00 0.00 0.00 0.00 0.00 0.00 0.00 0.00 0.00
0.02 0.02 0.02 0.03 0.02 0.02 0.02 0.02 0.02 0.01 0.01 0.01 0.01 0.01 0.01 0.01 0.01 0.01 0.01 0.01 0.00 0.00 0.00 0.00 0.00 0.00 0.00 0.01 0.00 0.00 0.00 0.00 0.00 0.01 0.01 0.01 0.01 0.00
0.02 0.02 0.03 0.03 0.03 0.03 0.02 0.02 0.02 0.01 0.01 0.01 0.00 0.00 0.01 0.01 0.01 0.01 0.01 0.01 0.00 0.00 0.00 0.01 0.01 0.01 0.01 0.00 0.00 0.00 0.00 0.00 0.00 0.00 0.01 0.01 0.01 0.01
0.02 0.04 0.04 0.04 0.04 0.02 0.02 0.02 0.02 0.01 0.01 0.00 0.00 0.00 0.00 0.00 0.01 0.01 0.00 0.00 0.00 0.00 0.01 0.01 0.02 0.02 0.01 0.01 0.00 0.00 0.00 0.00 0.00 0.01 0.01 0.01 0.01 0.01
0.03 0.03 0.03 0.02 0.02 0.01 0.01 0.01 0.01 0.01 0.00 0.00 0.00 0.00 0.00 0.00 0.01 0.01 0.00 0.00 0.00 0.00 0.01 0.01 0.02 0.01 0.01 0.01 0.01 0.01 0.01 0.01 0.01 0.01 0.01 0.01 0.01 0.01
0.03 0.03 0.02 0.02 0.02 0.02 0.01 0.00 0.00 0.00 0.00 0.00 0.00 0.00 0.00 0.00 0.00 0.00 0.00 0.00 0.00 0.00 0.00 0.00 0.00 0.00 0.00 0.00 0.00 0.00 0.00 0.01 0.01 0.00 0.00 0.01 0.01 0.00
0.03 0.02 0.01 0.01 0.01 0.01 0.00 0.00 0.00 0.00 0.00 0.00 0.00 0.00 0.00 0.00 0.00 0.00 0.00 0.00 0.00 0.00 0.00 0.00 0.00 0.00 0.00 0.00 0.00 0.00 0.00 0.00 0.00 0.00 0.00 0.01 0.01 0.01
0.01 0.00 0.00 0.00 0.00 0.00 0.00 0.00 0.00 0.00 0.00 0.00 0.00 0.00 0.00 0.00 0.00 0.00 0.00 0.00 0.00 0.00 0.00 0.00 0.00 0.00 0.00 0.00 0.00 0.00 0.00 0.00 0.00 0.00 0.00 0.00 0.01 0.01
0.00 0.00 0.00 0.00 0.00 0.00 0.00 0.00 0.00 0.00 0.00 0.00 0.00 0.00 0.00 0.00 0.00 0.00 0.00 0.00 0.00 0.00 0.00 0.00 0.00 0.00 0.00 0.01 0.01 0.01 0.00 0.00 0.00 0.00 0.00 0.00 0.01 0.01
0.00 0.00 0.00 0.00 0.00 0.00 0.00 0.00 0.00 0.00 0.00 0.00 0.00 0.00 0.00 0.00 0.00 0.00 0.00 0.01 0.01 0.01 0.01 0.01 0.01 0.01 0.00 0.00 0.00 0.00 0.00 0.00 0.00 0.00 0.00 0.01 0.01 0.01
0.00 0.00 0.00 0.00 0.00 0.00 0.00 0.00 0.00 0.00 0.00 0.00 0.00 0.00 0.00 0.01 0.01 0.01 0.01 0.01 0.01 0.01 0.01 0.01 0.00 0.00 0.00 0.00 0.00 0.00 0.00 0.00 0.00 0.00 0.00 0.01 0.01 0.01
0.01 0.01 0.01 0.01 0.00 0.00 0.00 0.00 0.00 0.00 0.00 0.00 0.00 0.00 0.00 0.00 0.01 0.01 0.01 0.01 0.01 0.01 0.01 0.01 0.01 0.01 0.01 0.01 0.00 0.00 0.00 0.00 0.00 0.00 0.00 0.01 0.01 0.01
MSLP
1014.87 1015.22 1015.56 1015.89 1016.20 1016.49 1016.75 1017.02 1017.29 1017.57 1017.88 1018.21 1018.54 1018.85 1019.13 1019.35 1019.51 1019.60 1019.65 1019.67 1019.69 1019.72 1019.78 1019.86 1019.95 1020.05 1020.13 1020.17 1020.17 1020.14 1020.07 1019.99 1019.90 1019.83 1019.77 1019.72 1019.67 1019.60
1014.79 1015.14 1015.47 1015.76 1016.02 1016.26 1016.51 1016.78 1017.08 1017.43 1017.82 1018.24 1018.67 1019.07 1019.41 1019.68 1019.87 1019.97 1020.01 1020.02 1020.01 1020.03 1020.08 1020.16 1020.27 1020.39 1020.49 1020.56 1020.57 1020.55 1020.48 1020.39 1020.29 1020.20 1020.13 1020.08 1020.03 1019.97
1014.84 1015.19 1015.49 1015.74 1015.96 1016.17 1016.39 1016.66 1016.99 1017.39 1017.84 1018.34 1018.84 1019.30 1019.70 1020.00 1020.20 1020.30 1020.33 1020.32 1020.30 1020.30 1020.35 1020.43 1020.55 1020.68 1020.79 1020.87 1020.89 1020.86 1020.79 1020.68 1020.57 1020.46 1020.38 1020.32 1020.28 1020.23
1015.02 1015.36 1015.64 1015.87 1016.05 1016.24 1016.45 1016.72 1017.07 1017.50 1018.01 1018.55 1019.09 1019.59 1020.01 1020.33 1020.53 1020.62 1020.63 1020.60 1020.57 1020.56 1020.60 1020.68 1020.80 1020.92 1021.04 1021.11 1021.12 1021.07 1020.98 1020.85 1020.72 1020.60 1020.51 1020.45 1020.42 1020.39
1015.34 1015.67 1015.94 1016.14 1016.31 1016.48 1016.69 1016.97 1017.33 1017.79 1018.31 1018.87 1019.43 1019.93 1020.35 1020.66 1020.84 1020.92 1020.92 1020.87 1020.83 1020.81 1020.84 1020.91 1021.02 1021.13 1021.22 1021.27 1021.25 1021.17 1021.04 1020.89 1020.73 1020.60 1020.50 1020.45 1020.43 1020.43
1015.77 1016.09 1016.34 1016.53 1016.70 1016.87 1017.08 1017.37 1017.74 1018.19 1018.71 1019.26 1019.80 1020.29 1020.68 1020.96 1021.13 1021.19 1021.17 1021.12 1021.07 1021.05 1021.07 1021.13 1021.21 1021.29 1021.35 1021.35 1021.29 1021.17 1021.00 1020.81 1020.63 1020.48 1020.38 1020.34 1020.33 1020.35
1016.30 1016.60 1016.83 1017.01 1017.18 1017.35 1017.57 1017.85 1018.22 1018.66 1019.15 1019.66 1020.16 1020.61 1020.96 1021.21 1021.35 1021.40 1021.38 1021.33 1021.29 1021.27 1021.28 1021.32 1021.37 1021.41 1021.42 1021.37 1021.26 1021.09 1020.87 1020.65 1020.44 1020.28 1020.17 1020.13 1020.14 1020.17
1016.89 1017.15 1017.36 1017.54 1017.70 1017.88 1018.09 1018.37 1018.71 1019.11 1019.56 1020.02 1020.46 1020.85 1021.15 1021.37 1021.49 1021.54 1021.53 1021.50 1021.47 1021.45 1021.46 1021.49 1021.51 1021.51 1021.47 1021.36 1021.19 1020.97 1020.72 1020.46 1020.22 1020.04 1019.92 1019.87 1019.87 1019.91
1017.49 1017.72 1017.91 1018.08 1018.24 1018.41 1018.62 1018.87 1019.17 1019.53 1019.91 1020.30 1020.67 1020.99 1021.25 1021.44 1021.56 1021.61 1021.63 1021.62 1021.62 1021.62 1021.63 1021.64 1021.64 1021.60 1021.51 1021.36 1021.14 1020.88 1020.58 1020.29 1020.03 1019.82 1019.68 1019.60 1019.58 1019.59
1018.09 1018.28 1018.46 1018.61 1018.77 1018.93 1019.12 1019.34 1019.59 1019.88 1020.19 1020.50 1020.80 1021.07 1021.29 1021.46 1021.58 1021.65 1021.70 1021.73 1021.76 1021.78 1021.80 1021.81 1021.78 1021.72 1021.59 1021.40 1021.15 1020.85 1020.53 1020.21 1019.92 1019.68 1019.50 1019.38 1019.31 1019.28
1018.66 1018.83 1018.99 1019.14 1019.29 1019.44 1019.60 1019.78 1019.98 1020.20 1020.44 1020.67 1020.91 1021.12 1021.31 1021.47 1021.60 1021.70 1021.79 1021.85 1021.91 1021.96 1021.99 1021.99 1021.96 1021.87 1021.72 1021.51 1021.24 1020.92 1020.58 1020.25 1019.93 1019.65 1019.42 1019.24 1019.10 1019.00
1019.17 1019.34 1019.50 1019.66 1019.81 1019.95 1020.09 1020.23 1020.37 1020.53 1020.69 1020.87 1021.04 1021.22 1021.38 1021.53 1021.68 1021.80 1021.92 1022.02 1022.10 1022.16 1022.20 1022.20 1022.15 1022.05 1021.89 1021.67 1021.40 1021.08 1020.74 1020.39 1020.05 1019.73 1019.44 1019.19 1018.97 1018.79
1019.63 1019.82 1020.00 1020.17 1020.33 1020.47 1020.59 1020.70 1020.80 1020.90 1021.01 1021.12 1021.25 1021.39 1021.54 1021.69 1021.84 1021.98 1022.11 1022.22 1022.31 1022.38 1022.41 1022.40 1022.34 1022.24 1022.08 1021.87 1021.61 1021.31 1020.97 1020.62 1020.26 1019.90 1019.56 1019.23 1018.92 1018.64
1020.03 1020.25 1020.46 1020.67 1020.84 1020.99 1021.10 1021.19 1021.26 1021.32 1021.39 1021.46 1021.56 1021.67 1021.80 1021.94 1022.09 1022.23 1022.35 1022.46 1022.54 1022.59 1022.60 1022.57 1022.50 1022.39 1022.24 1022.04 1021.81 1021.53 1021.22 1020.87 1020.50 1020.11 1019.71 1019.31 1018.92 1018.55
1020.36 1020.63 1020.89 1021.13 1021.34 1021.50 1021.62 1021.70 1021.75 1021.78 1021.82 1021.87 1021.94 1022.03 1022.15 1022.27 1022.40 1022.52 1022.63 1022.70 1022.75 1022.76 1022.74 1022.68 1022.59 1022.48 1022.33 1022.16 1021.95 1021.70 1021.41 1021.08 1020.71 1020.29 1019.85 1019.39 1018.93 1018.48
1020.63 1020.95 1021.26 1021.54 1021.78 1021.96 1022.09 1022.17 1022.22 1022.25 1022.28 1022.31 1022.37 1022.44 1022.54 1022.64 1022.74 1022.82 1022.89 1022.91 1022.91 1022.87 1022.80 1022.71 1022.60 1022.47 1022.34 1022.18 1022.00 1021.78 1021.52 1021.21 1020.84 1020.41 1019.94 1019.44 1018.93 1018.42
1020.85 1021.22 1021.57 1021.88 1022.15 1022.35 1022.49 1022.59 1022.64 1022.67 1022.70 1022.73 1022.78 1022.84 1022.92 1022.99 1023.05 1023.09 1023.10 1023.07 1023.01 1022.91 1022.79 1022.66 1022.53 1022.39 1022.26 1022.12 1021.96 1021.77 1021.54 1021.24 1020.87 1020.44 1019.95 1019.42 1018.88 1018.34
1021.04 1021.42 1021.80 1022.13 1022.41 1022.63 1022.79 1022.90 1022.97 1023.01 1023.05 1023.08 1023.13 1023.19 1023.24 1023.29 1023.32 1023.31 1023.26 1023.18 1023.05 1022.90 1022.74 1022.57 1022.41 1022.27 1022.14 1022.01 1021.87 1021.70 1021.47 1021.18 1020.82 1020.38 1019.88 1019.34 1018.78 1018.22
1021.18 1021.58 1021.95 1022.29 1022.58 1022.80 1022.97 1023.09 1023.18 1023.24 1023.29 1023.34 1023.39 1023.44 1023.49 1023.51 1023.50 1023.46 1023.36 1023.23 1023.06 1022.87 1022.67 1022.48 1022.31 1022.16 1022.02 1021.90 1021.76 1021.60 1021.37 1021.08 1020.72 1020.27 1019.76 1019.21 1018.64 1018.08
1021.29 1021.67 1022.03 1022.35 1022.63 1022.86 1023.03 1023.16 1023.27 1023.34 1023.41 1023.48 1023.54 1023.60 1023.64 1023.64 1023.62 1023.54 1023.42 1023.25 1023.06 1022.84 1022.63 1022.42 1022.24 1022.09 1021.95 1021.82 1021.68 1021.51 1021.28 1020.98 1020.60 1020.14 1019.62 1019.05 1018.48 1017.93
1021.36 1021.70 1022.03 1022.33 1022.59 1022.81 1022.98 1023.12 1023.24 1023.34 1023.43 1023.51 1023.59 1023.65 1023.69 1023.69 1023.65 1023.56 1023.43 1023.25 1023.04 1022.82 1022.60 1022.40 1022.22 1022.07 1021.93 1021.79 1021.64 1021.45 1021.21 1020.88 1020.48 1020.01 1019.47 1018.90 1018.33 1017.78
1021.36 1021.66 1021.95 1022.22 1022.46 1022.66 1022.83 1022.98 1023.11 1023.23 1023.34 1023.44 1023.53 1023.60 1023.64 1023.65 1023.61 1023.52 1023.38 1023.21 1023.01 1022.80 1022.59 1022.39 1022.22 1022.07 1021.93 1021.79 1021.62 1021.41 1021.14 1020.79 1020.37 1019.88 1019.34 1018.76 1018.19 1017.64
1021.27 1021.53 1021.78 1022.02 1022.23 1022.42 1022.59 1022.75 1022.89 1023.02 1023.15 1023.27 1023.37 1023.45 1023.50 1023.51 1023.47 1023.39 1023.27 1023.11 1022.92 1022.72 1022.53 1022.35 1022.19 1022.04 1021.89 1021.74 1021.56 1021.33 1021.04 1020.68 1020.24 1019.74 1019.20 1018.62 1018.06 1017.52
Thickness
5744 5743 5741 5740 5738 5736 5734 5730 5724 5716 5713 5714 5714 5715 5714 5712 5710 5708 5707 5705 5704 5702 5701 5699 5698 5697 5696 5695 5693 5691 5690 5688 5687 5685 5684 5683 5682 5681
5741 5739 5737 5736 5735 5734 5732 5729 5726 5719 5711 5709 5708 5707 5706 5705 5702 5701 5699 5697 5696 5694 5693 5691 5690 5689 5687 5686 5685 5683 5681 5680 5678 5677 5675 5674 5673 5672
5735 5734 5732 5731 5730 5728 5727 5724 5721 5717 5709 5704 5703 5701 5699 5696 5694 5692 5691 5689 5687 5685 5684 5682 5681 5679 5677 5676 5675 5673 5672 5671 5669 5668 5666 5665 5664 5663
5729 5728 5726 5726 5724 5722 5720 5718 5715 5712 5706 5699 5696 5694 5691 5689 5687 5684 5682 5680 5678 5675 5674 5672 5671 5669 5667 5666 5664 5663 5662 5660 5659 5657 5656 5654 5653 5651
5722 5721 5719 5719 5717 5715 5713 5711 5708 5705 5700 5695 5689 5686 5683 5681 5678 5676 5673 5670 5669 5666 5664 5662 5660 5658 5656 5655 5653 5652 5650 5649 5648 5646 5644 5642 5640 5639
5716 5715 5714 5713 5710 5708 5706 5704 5701 5696 5692 5687 5682 5678 5675 5672 5669 5665 5661 5659 5658 5656 5653 5651 5648 5646 5645 5643 5642 5640 5639 5637 5635 5634 5631 5630 5628 5626
5710 5709 5708 5706 5705 5703 5700 5696 5694 5688 5683 5679 5673 5669 5665 5662 5658 5656 5652 5648 5646 5644 5641 5640 5637 5635 5633 5631 5630 5628 5627 5625 5623 5621 5619 5617 5615 5613
5703 5701 5700 5698 5696 5694 5692 5690 5687 5682 5676 5671 5665 5660 5656 5653 5650 5648 5643 5639 5634 5633 5631 5628 5626 5623 5621 5620 5618 5616 5614 5612 5610 5608 5606 5604 5602 5600
5695 5694 5693 5690 5687 5685 5682 5680 5677 5674 5671 5665 5659 5654 5650 5648 5644 5639 5634 5630 5626 5624 5621 5616 5614 5611 5610 5608 5606 5604 5602 5600 5598 5596 5594 5592 5590 5588
5688 5686 5683 5680 5679 5676 5673 5669 5666 5663 5661 5658 5654 5649 5646 5642 5638 5632 5627 5622 5618 5615 5612 5605 5602 5600 5599 5597 5594 5592 5590 5587 5585 5584 5582 5580 5577 5575
5680 5678 5675 5672 5670 5668 5664 5660 5656 5653 5651 5648 5645 5641 5638 5634 5630 5625 5618 5612 5606 5603 5601 5596 5592 5589 5588 5585 5583 5581 5578 5576 5574 5571 5569 5567 5565 5563
5670 5668 5667 5664 5661 5659 5655 5650 5645 5641 5640 5637 5634 5631 5627 5624 5621 5616 5610 5603 5597 5593 5591 5587 5582 5578 5575 5574 5572 5570 5567 5564 5562 5560 5557 5555 5552 5550
5661 5658 5657 5655 5652 5650 5646 5642 5637 5634 5630 5627 5623 5619 5616 5613 5609 5606 5602 5596 5589 5584 5583 5579 5573 5568 5563 5560 5559 5558 5556 5553 5551 5548 5546 5544 5541 5539
5653 5650 5648 5647 5644 5641 5637 5633 5630 5626 5621 5616 5611 5607 5604 5600 5598 5595 5591 5587 5583 5578 5575 5571 5565 5559 5554 5549 5547 5546 5545 5542 5540 5537 5535 5533 5530 5528
5646 5643 5640 5638 5635 5631 5627 5624 5620 5615 5610 5604 5600 5596 5593 5591 5588 5584 5581 5577 5573 5569 5565 5561 5556 5551 5545 5540 5536 5534 5532 5531 5529 5526 5524 5522 5519 5517
5638 5635 5632 5629 5625 5621 5617 5613 5609 5605 5600 5594 5590 5587 5584 5581 5577 5573 5568 5564 5560 5557 5555 5551 5547 5542 5536 5532 5527 5524 5521 5519 5518 5516 5513 5511 5509 5507
5630 5626 5621 5617 5613 5609 5606 5602 5598 5595 5590 5585 5581 5577 5573 5570 5566 5562 5557 5553 5547 5543 5541 5540 5536 5532 5528 5523 5518 5515 5513 5511 5509 5506 5502 5499 5498 5497
5622 5615 5610 5606 5603 5599 5595 5591 5588 5584 5580 5576 5571 5567 5563 5559 5555 5551 5547 5542 5537 5533 5530 5527 5524 5521 5517 5514 5511 5506 5504 5501 5499 5496 5492 5489 5487 5487
5613 5607 5602 5598 5594 5591 5587 5583 5578 5574 5571 5566 5562 5557 5554 5550 5545 5541 5537 5532 5528 5524 5521 5517 5513 5508 5504 5501 5501 5500 5495 5492 5489 5486 5483 5480 5477 5478
5604 5599 5595 5591 5587 5582 5578 5574 5569 5565 5561 5557 5552 5548 5544 5540 5536 5531 5527 5523 5519 5515 5511 5508 5504 5500 5495 5492 5490 5490 5489 5484 5480 5477 5474 5472 5470 5469
5596 5592 5588 5584 5579 5575 5570 5565 5560 5555 5551 5547 5543 5539 5535 5531 5526 5522 5518 5515 5510 5506 5501 5498 5497 5495 5490 5486 5481 5479 5479 5478 5473 5469 5466 5462 5459 5458
5589 5585 5580 5576 5571 5566 5561 5556 5551 5546 5542 5538 5534 5530 5526 5522 5517 5513 5510 5505 5501 5497 5494 5491 5489 5486 5481 5476 5472 5470 5469 5468 5466 5463 5460 5456 5450 5448
5582 5577 5573 5568 5563 5558 5553 5548 5543 5538 5533 5529 5525 5521 5517 5513 5509 5505 5501 5497 5493 5489 5486 5483 5480 5476 5472 5468 5464 5461 5461 5458 5456 5453 5452 5450 5447 5444